Regional Weather Roundup
Issued by NWS Cleveland, OH

Home | Current Version | Previous Version | Graphics & Text | Print | Product List | Glossary On
Versions: 1 2 3 4 5 6 7 8 9 10 11 12 13 14 15 16 17 18 19 20 21 22 23 24 25 26 27 28 29 30 31 32 33 34 35 36 37 38 39 40 41 42 43 44 45 46 47 48 49 50
000
ASUS41 KCLE 120702
RWRCLE
OHIO REGIONAL WEATHER ROUNDUP
NATIONAL WEATHER SERVICE CLEVELAND, OH
200 AM EST TUE DEC 12 2017

NOTE: "FAIR" INDICATES FEW OR NO CLOUDS BELOW 12,000 FEET WITH NO
SIGNIFICANT WEATHER AND/OR OBSTRUCTIONS TO VISIBILITY.

OHZ001>008-015>018-024>027-034-035-043-044-120800-
   NORTHWEST OHIO

CITY           SKY/WX    TMP DP  RH WIND       PRES   REMARKS
DEFIANCE       CLOUDY    33  28  81 NW16G23   29.70R WCI  23
FINDLAY        LGT SNOW  31  27  85 W9        29.66S FOG     WCI  23
TOLEDO EXPRESS CLOUDY    30  30 100 W8        29.67R FOG     WCI  22
TOLEDO EXEC    CLOUDY    31  29  92 W13       29.67R FOG     WCI  21
LIMA           CLOUDY    30  29  96 NW14      29.69R WCI  19
$$

OHZ009>014-019>023-028>033-038-089-120800-
   NORTHEAST OHIO

CITY           SKY/WX    TMP DP  RH WIND       PRES   REMARKS
CLE-HOPKINS    LGT SNOW  32  31  96 CALM      29.62R FOG
CLE-LAKEFRONT  LGT SNOW  32  30  92 CALM      29.60S FOG
CUY CO. ARPT   NOT AVBL
LORAIN-ELYRIA  FLURRIES  31  23  72 NW5       29.61S WCI  26
ASHTABULA      LGT SNOW  29  27  92 CALM      29.59F FOG
AKRON-CANTON   FLURRIES  35  23  61 SW6       29.55F
WOOSTER        CLOUDY    33  25  72 W5        29.58R WCI  29
MANSFIELD      CLOUDY    33  26  75 NW10      29.59R WCI  25
YOUNGSTOWN     FLURRIES  33  24  69 E3        29.55F
$$

OHZ042-051>053-060>062-070>072-077>081-120800-
  SOUTHWEST OHIO

CITY           SKY/WX    TMP DP  RH WIND       PRES   REMARKS
CINC-COVINGTON CLOUDY    38  29  70 W22G30    29.77R
CINC-LUNKEN    CLOUDY    41  29  62 W18G26    29.79R
HAMILTON       CLOUDY    39  29  67 W15G25    29.78R
DAYTON         CLOUDY    35  30  82 NW22G29   29.73R WCI  23
WRIGHT-PAT AFB CLOUDY    38  29  71 NW14G25   29.71R
DAYTON GENERAL CLOUDY    38  28  67 NW13G21   29.73R
WILMINGTON     CLOUDY    38  29  70 W23G30    29.71R
$$

OHZ036-037-039>041-045>050-054>059-063>069-073>076-082>088-120800-
  CENTRAL AND SOUTHEAST OHIO

CITY           SKY/WX    TMP DP  RH WIND       PRES   REMARKS
COLUMBUS       MOCLDY    39  28  64 W18G26    29.65R
OSU AIRPORT    CLOUDY    38  29  70 W16G25    29.65R
BOLTON FIELD   MOCLDY    37  28  67 W13       29.67R
RICKENBACK AFB MOCLDY    37  28  69 W16       29.67R
NEWARK         CLOUDY    39  29  67 W17G30    29.64R
MARION         NOT AVBL
LANCASTER      CLOUDY    40  27  59 W15G25    29.66R
ZANESVILLE     CLOUDY    41  27  57 W13       29.62R
NEW PHILLY     NOT AVBL
$$




USA.gov is the U.S. government's official web portal to all federal, state and local government web resources and services.